Theta_e
307 307 307 307 307 306 299 293 289 301 302 287 281 281 290 294 292 295 292 291 288 287 287 286 286 286 289 295 295 289 291 285 281 284 290 294 290 287 286 280 279 284 284 286
307 307 306 307 307 306 299 290 291 302 299 281 281 287 290 293 291 292 291 289 290 290 287 283 288 289 294 295 292 290 290 283 277 280 286 291 289 291 292 288 286 283 282 285
307 306 307 307 306 306 301 291 287 290 291 289 284 285 288 289 294 293 293 290 291 288 286 287 286 287 292 295 294 298 295 285 282 275 282 288 287 290 291 288 282 285 286 289
308 307 307 307 306 306 298 292 287 289 282 286 287 288 288 289 289 292 292 289 289 287 285 285 285 289 290 293 296 295 290 284 286 286 288 289 289 289 290 288 288 285 289 291
307 307 306 307 306 306 296 288 289 291 289 289 286 287 287 288 290 290 289 287 290 290 287 288 286 288 288 287 289 290 291 284 288 284 289 289 288 290 291 290 290 290 291 293
307 307 307 307 306 303 291 293 294 294 291 287 285 284 288 290 292 292 293 291 290 289 291 295 294 293 292 291 287 286 288 287 285 280 288 288 283 289 290 293 293 293 289 295
308 307 307 307 306 305 297 294 296 292 285 288 287 290 291 291 291 289 292 292 289 293 298 296 295 292 291 291 291 292 287 284 285 282 285 277 291 297 298 298 295 301 304 305
307 308 308 308 307 306 296 294 296 294 287 290 290 291 290 291 293 290 292 293 295 296 292 287 286 286 287 290 292 291 291 287 282 281 283 288 292 293 294 294 295 304 302 306
307 308 308 308 308 307 297 295 294 295 291 287 293 289 290 288 290 290 293 295 296 293 288 287 281 280 284 285 288 294 290 290 285 284 280 280 288 293 297 298 293 304 303 304
306 307 307 308 308 308 302 297 295 295 290 293 293 291 289 294 293 289 292 292 290 291 283 278 282 283 289 281 284 286 287 287 283 283 283 286 291 293 298 291 294 303 304 304
305 306 307 307 307 308 304 297 297 294 289 291 295 296 292 292 292 288 293 289 287 287 285 282 282 284 285 286 288 287 285 283 285 287 283 281 292 293 293 296 302 304 305 308
305 304 306 307 307 308 307 297 298 298 294 294 299 300 301 300 298 294 294 291 290 292 286 283 287 284 287 286 281 292 285 288 285 287 286 293 293 296 302 302 301 302 304 306
305 305 306 306 307 307 307 300 300 296 291 292 293 294 300 302 301 303 293 290 291 293 295 289 289 284 288 284 285 289 291 295 289 290 293 293 298 301 302 303 302 304 307 307
305 305 305 306 306 307 306 300 299 295 295 290 290 301 298 303 302 302 301 294 293 292 293 289 289 287 293 288 290 289 291 293 291 290 295 297 299 300 302 303 305 304 306 307
305 306 306 306 306 306 305 301 300 299 294 291 291 297 300 301 302 301 301 298 295 293 291 291 289 295 294 294 291 286 291 291 288 288 296 296 297 301 303 303 303 305 305 306
303 304 304 305 306 306 300 295 300 300 299 294 288 294 297 300 302 301 298 298 296 295 294 293 294 299 291 288 286 292 293 298 296 293 298 298 300 303 304 304 305 306 306 308
303 304 305 305 305 303 295 295 301 305 304 296 290 288 298 301 301 301 297 299 298 297 297 294 291 293 292 290 286 292 297 299 299 301 300 297 300 300 304 306 306 307 306 307
303 304 304 305 304 303 298 300 304 305 301 297 288 287 291 302 294 292 298 294 296 297 294 293 291 292 290 287 294 296 297 297 298 299 302 301 303 303 303 305 305 304 304 305
304 304 305 301 297 299 303 309 307 306 301 291 291 284 282 303 298 297 296 294 289 295 291 292 295 290 282 289 292 294 296 297 296 300 301 301 301 301 301 301 302 302 303 304
305 302 299 297 300 308 307 301 297 297 297 297 292 292 287 294 296 295 290 291 289 285 291 293 283 283 293 295 296 296 297 298 299 295 296 297 299 299 299 299 300 302 302 303
296 293 294 297 303 300 297 293 291 292 289 291 291 291 288 297 293 291 291 284 288 282 289 292 282 281 291 298 299 299 299 299 299 299 300 302 298 300 300 299 301 301 301 302
295 295 299 298 295 294 291 289 292 291 288 292 291 292 293 295 297 289 289 282 285 283 294 288 281 289 294 299 300 297 297 300 299 299 300 301 302 302 300 301 301 299 301 301
299 296 292 290 291 285 286 281 286 290 294 295 296 293 296 294 295 289 286 281 279 288 281 283 288 294 295 297 298 298 299 301 300 299 301 301 302 302 300 298 301 300 299 299
293 291 285 286 284 287 287 288 291 297 296 295 294 293 293 293 290 290 283 287 290 281 278 280 291 295 296 298 298 297 300 301 301 301 301 300 300 299 300 299 299 298 298 298
289 289 285 285 290 292 293 295 294 298 300 295 292 292 293 288 290 290 286 282 279 277 279 285 294 299 300 298 299 297 299 300 299 301 300 300 300 299 298 299 298 298 298 298
291 289 286 288 288 290 291 293 294 299 300 298 293 289 288 287 289 285 283 279 276 280 287 295 297 299 300 300 301 299 300 300 299 300 302 301 300 300 298 300 299 298 298 297
288 287 291 289 290 290 292 293 293 299 297 292 295 288 286 290 284 283 286 282 284 289 292 297 298 298 299 301 302 301 301 298 299 299 300 299 300 300 298 296 297 298 297 297
Wind_Speed
20 22 23 24 24 24 7 4 3 4 4 4 1 1 5 11 15 9 4 5 4 4 5 5 5 4 4 7 6 7 1 2 4 10 15 13 4 6 5 2 7 5 4 17
20 21 22 23 22 19 6 4 4 4 6 3 4 5 10 13 11 15 4 5 4 3 3 5 5 3 6 4 2 2 5 3 4 10 2 7 6 3 1 4 6 16 6 10
19 20 21 23 22 20 4 3 5 6 5 1 2 7 6 11 10 14 10 9 4 6 7 5 6 12 4 5 6 9 2 4 6 6 8 8 8 8 7 3 4 10 16 16
19 19 20 21 24 25 3 2 3 1 5 6 7 7 5 14 7 6 9 4 6 8 6 9 4 5 9 6 13 4 7 5 10 12 17 17 18 17 12 8 6 4 7 18
20 19 19 19 20 25 4 3 4 5 7 6 6 5 3 16 11 7 8 8 17 8 10 10 17 12 9 9 6 8 6 5 5 15 18 19 20 13 13 11 12 11 16 27
20 19 17 17 17 12 3 3 3 2 5 5 4 4 13 12 12 9 11 13 15 10 14 13 21 19 19 16 10 7 8 5 3 8 13 3 4 12 10 5 7 6 7 12
17 17 16 14 12 8 1 3 3 3 6 7 9 15 13 14 16 11 14 10 6 10 22 21 15 11 15 14 16 13 9 5 4 7 6 5 5 11 5 7 8 1 13 15
17 16 15 14 11 10 2 2 2 3 7 8 16 9 12 12 14 5 13 11 15 15 9 5 8 5 6 4 8 13 14 8 3 3 3 3 3 10 9 11 5 3 14 8
18 17 16 14 12 8 0 4 4 3 5 5 6 16 9 11 8 8 12 9 8 6 3 3 4 4 4 5 10 8 9 9 3 3 4 2 1 9 16 12 5 8 14 11
19 18 17 16 14 11 3 4 2 3 6 10 7 4 8 5 4 5 8 9 8 5 5 4 3 3 5 5 6 4 3 3 7 7 5 3 4 14 16 6 3 18 16 10
20 18 18 17 15 14 4 4 4 3 5 13 16 12 11 8 7 3 4 6 5 4 6 4 3 3 4 4 4 6 2 3 1 4 1 5 15 15 8 6 7 12 15 11
19 20 18 17 16 15 7 3 3 2 5 8 11 16 22 19 27 5 1 2 1 3 3 3 3 3 3 4 5 4 3 4 2 2 1 4 12 11 6 8 9 12 14 17
19 19 17 17 16 15 9 4 3 1 4 7 4 8 9 4 14 12 4 2 4 3 3 2 2 5 2 2 2 3 3 3 4 5 5 1 9 13 12 9 11 15 14 13
20 19 17 17 16 14 12 5 2 2 4 5 8 4 10 6 4 12 6 6 4 0 1 2 3 4 4 2 4 2 3 6 6 4 5 7 11 13 14 18 16 17 15 10
21 20 19 18 17 15 10 8 7 8 3 4 7 14 7 3 12 12 10 8 6 2 2 3 4 3 3 1 2 1 3 2 0 3 5 3 6 9 12 13 18 25 21 10
22 23 22 20 18 13 3 4 2 7 7 4 5 5 5 2 9 12 12 8 3 3 3 3 4 5 2 2 2 2 4 9 1 3 6 7 10 9 9 12 13 18 11 11
24 23 21 19 16 4 3 4 1 2 3 3 5 5 6 5 5 4 3 5 3 3 3 3 3 3 4 1 2 6 7 6 7 6 5 3 5 6 10 11 13 14 14 15
26 26 23 20 18 8 6 8 16 6 3 1 3 6 5 4 2 3 5 5 3 4 4 3 2 2 2 1 6 6 5 4 5 10 5 4 5 6 8 7 11 13 13 14
29 28 21 1 2 3 2 2 6 2 2 3 3 2 5 1 3 3 1 3 3 2 3 3 2 2 1 6 4 4 5 2 4 8 8 10 9 8 8 9 11 10 11 13
27 3 0 2 2 3 2 2 1 1 2 2 4 3 5 2 0 3 2 1 2 0 4 2 3 3 4 5 7 6 5 6 5 2 5 6 6 6 6 7 7 7 6 7
5 5 3 4 15 0 3 3 3 3 3 4 5 7 4 3 3 4 1 2 2 1 2 1 1 3 4 5 6 6 6 5 2 4 3 3 1 2 5 5 5 6 8 9
6 7 6 3 3 3 3 4 3 5 6 4 5 6 6 3 3 3 3 1 3 3 0 2 2 4 6 5 6 4 4 7 4 2 6 5 5 5 4 5 7 8 10 12
2 2 3 1 2 2 5 5 4 3 4 5 4 2 4 1 3 2 3 2 4 2 3 3 4 4 6 6 3 5 6 7 4 3 1 4 4 3 5 5 7 7 9 11
3 3 4 5 5 6 6 4 3 5 3 5 3 2 4 3 3 3 3 4 1 4 2 4 2 4 6 6 3 1 8 8 7 5 2 5 5 5 6 7 6 8 9 10
4 3 5 7 6 5 4 6 4 6 7 5 1 3 4 1 3 1 1 1 3 5 5 4 3 3 4 2 3 5 8 8 7 5 2 4 4 5 7 7 7 9 10 14
4 6 4 5 4 6 4 4 5 5 5 5 2 3 3 3 4 3 5 5 6 6 4 4 3 3 4 4 3 4 5 7 7 6 5 4 4 3 7 7 4 8 10 13
5 5 5 5 7 9 10 4 4 4 2 3 4 5 7 3 3 3 4 6 5 5 3 3 6 7 8 7 4 5 6 7 6 6 5 5 6 8 8 8 7 8 10 11
Wind_Direction
345 344 345 345 346 343 28 352 8 291 73 30 33 293 278 326 325 344 297 290 302 331 302 289 296 327 230 344 338 318 119 148 264 252 249 261 235 247 148 190 256 265 227 254
344 345 344 345 348 357 327 334 276 327 84 47 316 297 322 305 324 318 291 285 298 271 278 320 268 244 298 281 285 315 355 281 307 315 317 236 252 179 3 231 229 244 234 261
345 346 345 343 343 345 346 343 349 330 32 147 26 318 313 328 297 295 341 293 325 342 309 253 285 299 288 289 190 265 50 242 225 225 273 327 285 292 300 314 253 248 244 285
346 345 346 346 342 342 95 44 284 200 305 321 315 303 277 312 321 303 316 305 328 312 295 297 257 306 310 292 272 174 162 232 259 266 268 267 262 261 255 246 257 261 293 277
343 345 345 347 348 338 53 33 2 348 286 277 303 315 333 311 319 296 300 314 310 303 291 271 293 280 277 255 281 173 177 251 235 279 266 261 242 234 241 242 262 253 251 275
338 342 342 346 352 4 11 316 308 238 274 293 320 254 321 299 322 299 288 301 304 304 286 276 278 259 261 240 225 227 194 210 237 270 337 176 227 240 219 249 214 224 246 276
330 335 338 339 346 11 298 264 279 266 278 313 295 296 303 319 318 298 303 321 314 291 301 297 275 257 238 225 233 222 238 199 205 279 277 232 103 42 359 236 193 255 293 258
325 325 326 329 333 334 188 259 281 276 282 303 291 290 320 302 316 299 302 303 298 301 296 325 316 338 10 345 222 227 215 220 265 247 281 319 62 30 355 1 293 348 337 356
323 321 321 321 321 317 302 250 197 254 292 248 306 310 284 301 319 316 310 307 295 333 324 331 331 342 304 315 334 334 191 205 189 284 284 292 118 319 326 306 244 360 344 324
321 319 318 317 317 314 274 262 208 262 273 269 256 271 310 287 284 297 301 329 335 16 354 5 322 342 329 324 331 353 25 333 241 252 268 287 33 289 297 202 6 319 326 297
315 316 315 313 312 311 289 247 218 188 245 277 262 268 267 275 280 267 336 336 8 323 356 5 327 306 330 302 314 338 343 272 236 230 258 277 354 346 24 321 286 305 319 330
311 310 307 307 306 305 300 247 212 195 248 266 307 272 257 246 249 241 244 203 240 291 324 336 301 307 294 310 322 352 2 327 287 25 228 354 295 277 329 344 327 308 335 322
310 310 305 302 300 300 290 251 250 246 248 271 257 261 253 177 219 185 176 179 210 237 208 278 280 280 262 316 302 293 296 347 3 338 7 226 335 354 353 349 330 341 308 282
311 307 304 302 302 304 296 264 205 197 268 274 278 287 278 273 185 173 172 137 88 86 30 257 267 262 213 260 276 335 311 349 331 293 314 328 343 352 326 324 329 321 329 23
314 312 310 308 304 298 291 262 238 201 236 292 295 302 268 250 148 144 146 133 132 189 239 231 244 248 252 80 310 313 328 287 20 300 307 281 304 334 286 313 343 329 332 2
310 309 309 307 305 308 302 296 145 190 191 283 300 287 293 90 171 154 165 163 136 170 213 245 254 244 123 20 309 235 290 329 255 266 302 279 274 294 355 23 339 307 346 26
308 303 299 296 292 270 214 235 175 30 223 259 293 294 270 168 173 178 167 160 190 184 242 234 238 282 84 29 310 300 315 312 318 324 309 348 309 321 9 21 331 342 15 24
307 302 297 291 285 269 254 248 250 207 217 259 269 270 316 169 207 247 167 160 171 211 226 284 248 346 91 222 245 298 298 306 330 330 358 280 306 20 36 20 13 5 19 15
307 302 302 31 93 200 300 13 102 106 172 244 242 225 268 356 307 247 266 143 175 185 205 257 101 329 205 234 244 282 310 314 297 333 6 14 12 9 24 13 17 12 6 13
310 330 263 118 53 305 273 347 146 155 229 243 250 223 258 28 22 271 341 6 234 180 241 91 81 254 250 238 247 247 260 292 287 17 38 24 3 7 29 15 352 359 344 16
358 357 346 314 293 233 207 207 186 163 239 225 233 204 218 266 163 228 162 248 304 339 311 14 210 290 246 211 235 249 255 219 72 124 112 54 17 56 43 15 2 8 11 25
276 278 297 278 290 256 248 223 200 195 232 212 200 199 187 248 133 99 329 170 27 250 291 185 218 235 209 176 220 169 145 133 93 351 70 48 55 70 58 32 32 43 32 28
276 206 238 202 245 235 216 220 240 229 226 206 193 164 157 48 73 73 75 57 242 331 32 243 216 188 140 163 174 167 155 136 141 284 58 86 70 55 70 72 57 48 45 39
263 230 255 201 207 237 204 224 231 263 301 274 147 144 144 168 100 135 109 235 116 350 329 249 253 183 152 153 164 81 149 158 204 212 134 88 48 17 22 65 57 53 41 43
264 255 244 225 227 265 257 252 257 272 271 227 116 66 114 88 121 169 97 9 274 195 232 237 210 58 358 302 157 134 141 164 175 156 128 90 75 50 43 62 54 49 35 39
236 239 275 279 302 287 311 302 299 289 334 339 355 136 131 191 150 123 209 149 224 246 219 215 170 198 235 247 270 214 158 129 139 131 158 117 91 90 76 60 82 69 59 49
236 244 229 242 274 267 276 278 272 303 273 177 77 276 202 134 130 182 181 205 213 214 222 194 175 186 220 243 214 196 136 127 129 129 124 85 59 58 73 66 45 62 66 59